STARLINK-32367

Last updated on Tue Oct 01 2024 00:02:04 GMT+0000 (Coordinated Universal Time)

1 60919U 24154S 24274.58334491 -.00133580 00000+0 -33796-2 0 9998 2 60919 53.1598 203.7206 0001218 72.2091 59.7310 15.39697811 6002
UTC large
Height (km)
Speed (km/s)
/
Latitude / Longitude
Inclination (degrees)
Orbital Period (minutes)
Azimuth
Elevation
Range (km)
Doppler Factor

Next 0 passes for location: London (51.5072 / 0.1276)

Sorry there are no passes over London.